Time,TemperatureF,DewpointF,PressureIn,WindDirection,WindDirectionDegrees,WindSpeedMPH,WindSpeedGustMPH,Humidity,HourlyPrecipIn,Conditions,Clouds,dailyrainin,SoftwareType,DateUTC
2013-05-17 00:00:00,48.0,41.2,30.00,SW,230,0.0,0.0,77,0.00,,,0.00,VWS V14.00,2013-05-17 04:00:00,
2013-05-17 00:01:00,47.9,40.7,30.00,SW,230,0.0,0.0,76,0.00,,,0.00,VWS V14.00,2013-05-17 04:01:00,
2013-05-17 00:06:00,47.6,40.8,30.00,SW,230,0.0,0.0,77,0.00,,,0.00,VWS V14.00,2013-05-17 04:06:00,
2013-05-17 00:11:00,47.4,40.6,30.00,SW,230,0.0,0.0,77,0.00,,,0.00,VWS V14.00,2013-05-17 04:11:00,
2013-05-17 00:17:00,47.3,40.8,30.00,SW,230,0.0,0.0,78,0.00,,,0.00,VWS V14.00,2013-05-17 04:17:00,
2013-05-17 00:21:00,47.0,40.5,30.00,SW,230,0.0,0.0,78,0.00,,,0.00,VWS V14.00,2013-05-17 04:21:00,
2013-05-17 00:26:00,46.7,40.5,30.00,SW,230,0.0,0.0,79,0.00,,,0.00,VWS V14.00,2013-05-17 04:26:00,
2013-05-17 00:32:00,46.5,40.3,30.00,SW,230,0.0,0.0,79,0.00,,,0.00,VWS V14.00,2013-05-17 04:32:00,
2013-05-17 00:36:00,46.4,40.6,30.00,SW,230,0.0,0.0,80,0.00,,,0.00,VWS V14.00,2013-05-17 04:36:00,
2013-05-17 00:42:00,46.3,40.5,30.00,SW,230,0.0,0.0,80,0.00,,,0.00,VWS V14.00,2013-05-17 04:42:00,
2013-05-17 00:47:00,46.0,40.2,30.01,SW,230,0.0,0.0,80,0.00,,,0.00,VWS V14.00,2013-05-17 04:47:00,
2013-05-17 00:52:00,45.7,39.9,30.00,SW,230,0.0,0.0,80,0.00,,,0.00,VWS V14.00,2013-05-17 04:52:00,
2013-05-17 00:57:00,45.5,40.0,30.00,SW,230,0.0,0.0,81,0.00,,,0.00,VWS V14.00,2013-05-17 04:57:00,
2013-05-17 01:02:00,45.3,39.8,30.01,SW,230,0.0,0.0,81,0.00,,,0.00,VWS V14.00,2013-05-17 05:02:00,
2013-05-17 01:07:00,45.0,39.8,30.01,SW,230,0.0,0.0,82,0.00,,,0.00,VWS V14.00,2013-05-17 05:07:00,
2013-05-17 01:12:00,44.7,39.5,30.01,SW,230,0.0,0.0,82,0.00,,,0.00,VWS V14.00,2013-05-17 05:12:00,
2013-05-17 01:17:00,44.5,39.4,30.00,SW,230,0.0,0.0,82,0.00,,,0.00,VWS V14.00,2013-05-17 05:17:00,
2013-05-17 01:22:00,44.3,39.5,30.00,SW,230,0.0,0.0,83,0.00,,,0.00,VWS V14.00,2013-05-17 05:22:00,
2013-05-17 01:27:00,44.2,39.4,30.00,SW,230,0.0,0.0,83,0.00,,,0.00,VWS V14.00,2013-05-17 05:27:00,
2013-05-17 01:32:00,44.0,39.5,30.01,SW,230,0.0,0.0,84,0.00,,,0.00,VWS V14.00,2013-05-17 05:32:00,
2013-05-17 01:37:00,43.7,39.2,30.01,SW,230,0.0,0.0,84,0.00,,,0.00,VWS V14.00,2013-05-17 05:37:00,
2013-05-17 01:41:00,43.5,39.6,30.00,SW,230,0.0,0.0,86,0.00,,,0.00,VWS V14.00,2013-05-17 05:41:00,
2013-05-17 01:47:00,43.3,39.4,30.01,SW,230,0.0,0.0,86,0.00,,,0.00,VWS V14.00,2013-05-17 05:47:00,
2013-05-17 01:52:00,43.2,39.6,30.01,SW,230,0.0,0.0,87,0.00,,,0.00,VWS V14.00,2013-05-17 05:52:00,
2013-05-17 01:57:00,43.1,39.2,30.01,SW,230,0.0,0.0,86,0.00,,,0.00,VWS V14.00,2013-05-17 05:57:00,
2013-05-17 02:02:00,42.9,39.3,30.02,SW,230,0.0,0.0,87,0.00,,,0.00,VWS V14.00,2013-05-17 06:02:00,
2013-05-17 02:07:00,42.8,39.2,30.02,SW,230,0.0,0.0,87,0.00,,,0.00,VWS V14.00,2013-05-17 06:07:00,
2013-05-17 02:12:00,42.6,39.0,30.02,SW,230,0.0,0.0,87,0.00,,,0.00,VWS V14.00,2013-05-17 06:12:00,
2013-05-17 02:17:00,42.4,38.8,30.01,SW,230,0.0,0.0,87,0.00,,,0.00,VWS V14.00,2013-05-17 06:17:00,
2013-05-17 02:22:00,42.3,38.7,30.01,SW,230,0.0,0.0,87,0.00,,,0.00,VWS V14.00,2013-05-17 06:22:00,
2013-05-17 02:27:00,42.2,38.9,30.01,SW,230,0.0,0.0,88,0.00,,,0.00,VWS V14.00,2013-05-17 06:27:00,
2013-05-17 02:32:00,42.2,38.9,30.02,SW,230,0.0,0.0,88,0.00,,,0.00,VWS V14.00,2013-05-17 06:32:00,
2013-05-17 02:37:00,42.1,38.5,30.01,SW,230,0.0,0.0,87,0.00,,,0.00,VWS V14.00,2013-05-17 06:37:00,
2013-05-17 02:42:00,42.0,38.4,30.01,SW,230,0.0,0.0,87,0.00,,,0.00,VWS V14.00,2013-05-17 06:42:00,
2013-05-17 02:47:00,42.0,38.4,30.01,SW,230,0.0,0.0,87,0.00,,,0.00,VWS V14.00,2013-05-17 06:47:00,
2013-05-17 02:51:00,41.9,38.3,30.02,SW,230,0.0,0.0,87,0.00,,,0.00,VWS V14.00,2013-05-17 06:51:00,
2013-05-17 02:57:00,41.8,38.2,30.02,SW,230,0.0,0.0,87,0.00,,,0.00,VWS V14.00,2013-05-17 06:57:00,
2013-05-17 03:01:00,41.7,38.1,30.02,SW,230,0.0,0.0,87,0.00,,,0.00,VWS V14.00,2013-05-17 07:01:00,
2013-05-17 03:07:00,41.5,37.9,30.02,SW,230,0.0,0.0,87,0.00,,,0.00,VWS V14.00,2013-05-17 07:07:00,
2013-05-17 03:12:00,41.4,37.8,30.02,SW,230,0.0,0.0,87,0.00,,,0.00,VWS V14.00,2013-05-17 07:12:00,
2013-05-17 03:17:00,41.4,38.1,30.02,SW,230,0.0,0.0,88,0.00,,,0.00,VWS V14.00,2013-05-17 07:17:00,
2013-05-17 03:22:00,41.3,38.0,30.03,SW,230,0.0,0.0,88,0.00,,,0.00,VWS V14.00,2013-05-17 07:22:00,
2013-05-17 03:27:00,41.1,37.8,30.03,SW,230,0.0,0.0,88,0.00,,,0.00,VWS V14.00,2013-05-17 07:27:00,
2013-05-17 03:32:00,41.0,37.7,30.03,SW,230,0.0,0.0,88,0.00,,,0.00,VWS V14.00,2013-05-17 07:32:00,
2013-05-17 03:37:00,40.9,37.6,30.03,SW,230,0.0,0.0,88,0.00,,,0.00,VWS V14.00,2013-05-17 07:37:00,
2013-05-17 03:42:00,40.8,37.5,30.03,SW,230,0.0,0.0,88,0.00,,,0.00,VWS V14.00,2013-05-17 07:42:00,
2013-05-17 03:47:00,40.8,37.5,30.03,SW,230,0.0,0.0,88,0.00,,,0.00,VWS V14.00,2013-05-17 07:47:00,
2013-05-17 03:52:00,40.7,37.4,30.03,SW,230,0.0,0.0,88,0.00,,,0.00,VWS V14.00,2013-05-17 07:52:00,
2013-05-17 03:57:00,40.7,37.4,30.04,SW,230,0.0,0.0,88,0.00,,,0.00,VWS V14.00,2013-05-17 07:57:00,
2013-05-17 04:02:00,40.6,37.6,30.04,SW,230,0.0,0.0,89,0.00,,,0.00,VWS V14.00,2013-05-17 08:02:00,
2013-05-17 04:07:00,40.6,37.6,30.04,SW,230,0.0,0.0,89,0.00,,,0.00,VWS V14.00,2013-05-17 08:07:00,
2013-05-17 04:12:00,40.5,37.5,30.04,SW,230,0.0,0.0,89,0.00,,,0.00,VWS V14.00,2013-05-17 08:12:00,
2013-05-17 04:17:00,40.4,37.4,30.04,SW,230,0.0,0.0,89,0.00,,,0.00,VWS V14.00,2013-05-17 08:17:00,
2013-05-17 04:22:00,40.4,37.4,30.04,SW,230,0.0,0.0,89,0.00,,,0.00,VWS V14.00,2013-05-17 08:22:00,
2013-05-17 04:27:00,40.3,37.3,30.04,SW,230,0.0,0.0,89,0.00,,,0.00,VWS V14.00,2013-05-17 08:27:00,
2013-05-17 04:32:00,40.2,37.5,30.04,SW,230,0.0,0.0,90,0.00,,,0.00,VWS V14.00,2013-05-17 08:32:00,
2013-05-17 04:37:00,40.2,37.2,30.05,SW,230,0.0,0.0,89,0.00,,,0.00,VWS V14.00,2013-05-17 08:37:00,
2013-05-17 04:42:00,40.1,37.4,30.05,SW,230,0.0,0.0,90,0.00,,,0.00,VWS V14.00,2013-05-17 08:42:00,
2013-05-17 04:47:00,40.0,37.3,30.05,SW,230,0.0,0.0,90,0.00,,,0.00,VWS V14.00,2013-05-17 08:47:00,
2013-05-17 04:52:00,39.9,37.2,30.05,SW,230,0.0,0.0,90,0.00,,,0.00,VWS V14.00,2013-05-17 08:52:00,
2013-05-17 04:57:00,39.8,36.8,30.05,SW,230,0.0,0.0,89,0.00,,,0.00,VWS V14.00,2013-05-17 08:57:00,
2013-05-17 05:02:00,39.7,37.0,30.05,SW,230,0.0,0.0,90,0.00,,,0.00,VWS V14.00,2013-05-17 09:02:00,
2013-05-17 05:07:00,39.7,37.0,30.06,SW,230,0.0,0.0,90,0.00,,,0.00,VWS V14.00,2013-05-17 09:07:00,
2013-05-17 05:12:00,39.6,36.9,30.05,SW,230,0.0,0.0,90,0.00,,,0.00,VWS V14.00,2013-05-17 09:12:00,
2013-05-17 05:17:00,39.6,36.9,30.06,SW,230,0.0,0.0,90,0.00,,,0.00,VWS V14.00,2013-05-17 09:17:00,
2013-05-17 05:22:00,39.5,37.1,30.06,SW,230,0.0,0.0,91,0.00,,,0.00,VWS V14.00,2013-05-17 09:22:00,
2013-05-17 05:27:00,39.4,37.0,30.06,SW,230,0.0,0.0,91,0.00,,,0.00,VWS V14.00,2013-05-17 09:27:00,
2013-05-17 05:32:00,39.4,37.0,30.07,SW,230,0.0,0.0,91,0.00,,,0.00,VWS V14.00,2013-05-17 09:32:00,
2013-05-17 05:37:00,39.4,37.0,30.06,SW,230,0.0,0.0,91,0.00,,,0.00,VWS V14.00,2013-05-17 09:37:00,
2013-05-17 05:42:00,39.4,37.0,30.06,SW,230,0.0,0.0,91,0.00,,,0.00,VWS V14.00,2013-05-17 09:42:00,
2013-05-17 05:47:00,39.3,36.9,30.06,SW,230,0.0,0.0,91,0.00,,,0.00,VWS V14.00,2013-05-17 09:47:00,
2013-05-17 05:52:00,39.4,37.0,30.06,SW,230,0.0,0.0,91,0.00,,,0.00,VWS V14.00,2013-05-17 09:52:00,
2013-05-17 05:57:00,39.3,36.9,30.07,SW,230,0.0,0.0,91,0.00,,,0.00,VWS V14.00,2013-05-17 09:57:00,
2013-05-17 06:02:00,39.3,36.9,30.07,SW,230,0.0,0.0,91,0.00,,,0.00,VWS V14.00,2013-05-17 10:02:00,
2013-05-17 06:07:00,39.2,36.8,30.07,SW,230,0.0,0.0,91,0.00,,,0.00,VWS V14.00,2013-05-17 10:07:00,
2013-05-17 06:12:00,39.3,37.2,30.07,SW,230,0.0,0.0,92,0.00,,,0.00,VWS V14.00,2013-05-17 10:12:00,
2013-05-17 06:17:00,39.3,37.2,30.07,SW,230,0.0,0.0,92,0.00,,,0.00,VWS V14.00,2013-05-17 10:17:00,
2013-05-17 06:22:00,39.4,37.3,30.08,SW,230,0.0,0.0,92,0.00,,,0.00,VWS V14.00,2013-05-17 10:22:00,
2013-05-17 06:27:00,39.4,37.3,30.08,SW,230,0.0,0.0,92,0.00,,,0.00,VWS V14.00,2013-05-17 10:27:00,
2013-05-17 06:32:00,39.4,37.3,30.09,SW,230,0.0,0.0,92,0.00,,,0.00,VWS V14.00,2013-05-17 10:32:00,
2013-05-17 06:37:00,39.4,37.3,30.09,SW,230,0.0,0.0,92,0.00,,,0.00,VWS V14.00,2013-05-17 10:37:00,
2013-05-17 06:42:00,39.5,37.4,30.09,SW,230,0.0,0.0,92,0.00,,,0.00,VWS V14.00,2013-05-17 10:42:00,
2013-05-17 06:47:00,39.6,37.5,30.10,SW,230,0.0,0.0,92,0.00,,,0.00,VWS V14.00,2013-05-17 10:47:00,
2013-05-17 06:52:00,39.7,37.6,30.10,SW,230,0.0,0.0,92,0.00,,,0.00,VWS V14.00,2013-05-17 10:52:00,
2013-05-17 06:57:00,39.9,37.8,30.10,SW,230,0.0,0.0,92,0.00,,,0.00,VWS V14.00,2013-05-17 10:57:00,
2013-05-17 07:02:00,40.0,37.9,30.10,SW,230,0.0,0.0,92,0.00,,,0.00,VWS V14.00,2013-05-17 11:02:00,
2013-05-17 07:07:00,40.2,38.1,30.10,SW,230,0.0,0.0,92,0.00,,,0.00,VWS V14.00,2013-05-17 11:07:00,
2013-05-17 07:12:00,40.3,38.2,30.11,SW,230,0.0,0.0,92,0.00,,,0.00,VWS V14.00,2013-05-17 11:12:00,
2013-05-17 07:17:00,40.4,38.3,30.11,SW,230,0.0,0.0,92,0.00,,,0.00,VWS V14.00,2013-05-17 11:17:00,
2013-05-17 07:22:00,40.6,38.5,30.11,SW,230,0.0,0.0,92,0.00,,,0.00,VWS V14.00,2013-05-17 11:22:00,
2013-05-17 07:27:00,40.8,38.7,30.10,SW,230,0.0,0.0,92,0.00,,,0.00,VWS V14.00,2013-05-17 11:27:00,
2013-05-17 07:32:00,41.0,39.1,30.11,SW,230,0.0,0.0,93,0.00,,,0.00,VWS V14.00,2013-05-17 11:32:00,
2013-05-17 07:37:00,41.2,39.1,30.11,SW,230,0.0,0.0,92,0.00,,,0.00,VWS V14.00,2013-05-17 11:37:00,
2013-05-17 07:42:00,41.5,39.3,30.11,SW,230,0.0,0.0,92,0.00,,,0.00,VWS V14.00,2013-05-17 11:42:00,
2013-05-17 07:47:00,41.8,39.9,30.11,SW,230,0.0,0.0,93,0.00,,,0.00,VWS V14.00,2013-05-17 11:47:00,
2013-05-17 07:52:00,42.0,39.8,30.11,SW,230,0.0,0.0,92,0.00,,,0.00,VWS V14.00,2013-05-17 11:52:00,
2013-05-17 07:57:00,42.3,40.4,30.12,SW,230,0.0,0.0,93,0.00,,,0.00,VWS V14.00,2013-05-17 11:57:00,
2013-05-17 08:02:00,42.6,40.4,30.12,SW,230,0.0,0.0,92,0.00,,,0.00,VWS V14.00,2013-05-17 12:02:00,
2013-05-17 08:07:00,42.9,40.7,30.12,SW,230,0.0,0.0,92,0.00,,,0.00,VWS V14.00,2013-05-17 12:07:00,
2013-05-17 08:12:00,43.3,41.1,30.12,SW,230,0.0,0.0,92,0.00,,,0.00,VWS V14.00,2013-05-17 12:12:00,
2013-05-17 08:17:00,43.7,41.5,30.12,SW,230,0.0,0.0,92,0.00,,,0.00,VWS V14.00,2013-05-17 12:17:00,
2013-05-17 08:22:00,44.0,41.5,30.12,SW,230,0.0,0.0,91,0.00,,,0.00,VWS V14.00,2013-05-17 12:22:00,
2013-05-17 08:27:00,44.4,41.7,30.13,SW,230,0.0,1.0,90,0.00,,,0.00,VWS V14.00,2013-05-17 12:27:00,
2013-05-17 08:32:00,44.8,41.5,30.13,SW,230,0.0,0.0,88,0.00,,,0.00,VWS V14.00,2013-05-17 12:32:00,
2013-05-17 08:37:00,45.4,40.5,30.13,SW,228,0.0,1.0,83,0.00,,,0.00,VWS V14.00,2013-05-17 12:37:00,
2013-05-17 08:42:00,46.0,41.1,30.14,SW,228,0.0,1.0,83,0.00,,,0.00,VWS V14.00,2013-05-17 12:42:00,
2013-05-17 08:47:00,46.5,40.0,30.14,SSW,198,0.0,2.0,78,0.00,,,0.00,VWS V14.00,2013-05-17 12:47:00,
2013-05-17 08:52:00,46.9,39.4,30.14,SSW,198,0.0,2.0,75,0.00,,,0.00,VWS V14.00,2013-05-17 12:52:00,
2013-05-17 08:57:00,47.3,40.1,30.14,SSW,198,0.0,2.0,76,0.00,,,0.00,VWS V14.00,2013-05-17 12:57:00,
2013-05-17 09:02:00,47.7,39.8,30.14,SSW,198,0.0,1.0,74,0.00,,,0.00,VWS V14.00,2013-05-17 13:02:00,
2013-05-17 09:07:00,48.1,41.9,30.15,SSW,198,0.0,1.0,79,0.00,,,0.00,VWS V14.00,2013-05-17 13:07:00,
2013-05-17 09:12:00,48.3,41.4,30.15,SSW,198,0.0,1.0,77,0.00,,,0.00,VWS V14.00,2013-05-17 13:12:00,
2013-05-17 09:17:00,48.5,39.9,30.15,SSW,198,0.0,1.0,72,0.00,,,0.00,VWS V14.00,2013-05-17 13:17:00,
2013-05-17 09:22:00,48.7,40.1,30.15,SSW,198,0.0,2.0,72,0.00,,,0.00,VWS V14.00,2013-05-17 13:22:00,
2013-05-17 09:27:00,49.0,40.7,30.15,SSW,198,0.0,2.0,73,0.00,,,0.00,VWS V14.00,2013-05-17 13:27:00,
2013-05-17 09:32:00,49.2,40.6,30.15,SSW,198,0.0,0.0,72,0.00,,,0.00,VWS V14.00,2013-05-17 13:32:00,
2013-05-17 09:37:00,49.5,40.1,30.15,SSW,198,0.0,1.0,70,0.00,,,0.00,VWS V14.00,2013-05-17 13:37:00,
2013-05-17 09:42:00,49.7,40.3,30.15,SSW,198,0.0,1.0,70,0.00,,,0.00,VWS V14.00,2013-05-17 13:42:00,
2013-05-17 09:47:00,50.0,41.0,30.15,SSW,198,0.0,1.0,71,0.00,,,0.00,VWS V14.00,2013-05-17 13:47:00,
2013-05-17 09:52:00,50.2,40.8,30.15,SSW,198,0.0,1.0,70,0.00,,,0.00,VWS V14.00,2013-05-17 13:52:00,
2013-05-17 09:57:00,50.6,41.2,30.16,SSW,198,0.0,1.0,70,0.00,,,0.00,VWS V14.00,2013-05-17 13:57:00,
2013-05-17 10:02:00,51.2,42.1,30.16,SSW,198,0.0,0.0,71,0.00,,,0.00,VWS V14.00,2013-05-17 14:02:00,
2013-05-17 10:07:00,52.2,42.0,30.16,SSW,205,0.0,3.0,68,0.00,,,0.00,VWS V14.00,2013-05-17 14:07:00,
2013-05-17 10:12:00,52.9,42.6,30.16,SSW,200,0.0,3.0,68,0.00,,,0.00,VWS V14.00,2013-05-17 14:12:00,
2013-05-17 10:17:00,53.8,41.5,30.16,SSW,200,0.0,3.0,63,0.00,,,0.00,VWS V14.00,2013-05-17 14:17:00,
2013-05-17 10:22:00,54.4,41.7,30.16,SSW,200,0.0,3.0,62,0.00,,,0.00,VWS V14.00,2013-05-17 14:22:00,
2013-05-17 10:27:00,54.7,40.7,30.17,SSW,200,0.0,3.0,59,0.00,,,0.00,VWS V14.00,2013-05-17 14:27:00,
2013-05-17 10:32:00,55.5,41.0,30.16,SSE,166,0.0,1.0,58,0.00,,,0.00,VWS V14.00,2013-05-17 14:32:00,
2013-05-17 10:37:00,55.7,40.3,30.16,SE,125,0.0,2.0,56,0.00,,,0.00,VWS V14.00,2013-05-17 14:37:00,
2013-05-17 10:42:00,56.0,41.5,30.16,SSE,165,0.0,2.0,58,0.00,,,0.00,VWS V14.00,2013-05-17 14:42:00,
2013-05-17 10:47:00,56.6,41.1,30.17,ESE,108,0.0,2.0,56,0.00,,,0.00,VWS V14.00,2013-05-17 14:47:00,
2013-05-17 10:52:00,56.5,41.0,30.17,SE,140,0.0,2.0,56,0.00,,,0.00,VWS V14.00,2013-05-17 14:52:00,
2013-05-17 10:57:00,56.8,41.3,30.17,SSE,148,0.0,2.0,56,0.00,,,0.00,VWS V14.00,2013-05-17 14:57:00,
2013-05-17 11:02:00,57.4,41.4,30.17,East,93,0.0,2.0,55,0.00,,,0.00,VWS V14.00,2013-05-17 15:02:00,
2013-05-17 11:07:00,58.2,41.7,30.17,SSW,200,1.0,2.0,54,0.00,,,0.00,VWS V14.00,2013-05-17 15:07:00,
2013-05-17 11:12:00,58.6,42.0,30.17,South,185,0.0,2.0,54,0.00,,,0.00,VWS V14.00,2013-05-17 15:12:00,
2013-05-17 11:17:00,58.2,40.7,30.17,East,83,0.0,4.0,52,0.00,,,0.00,VWS V14.00,2013-05-17 15:17:00,
2013-05-17 11:22:00,57.6,40.1,30.17,ENE,59,1.0,4.0,52,0.00,,,0.00,VWS V14.00,2013-05-17 15:22:00,
2013-05-17 11:27:00,57.6,41.1,30.17,SSW,198,0.0,4.0,54,0.00,,,0.00,VWS V14.00,2013-05-17 15:27:00,
2013-05-17 11:32:00,58.3,41.3,30.17,SSW,207,0.0,1.0,53,0.00,,,0.00,VWS V14.00,2013-05-17 15:32:00,
2013-05-17 11:37:00,59.0,41.4,30.17,SSW,213,1.0,3.0,52,0.00,,,0.00,VWS V14.00,2013-05-17 15:37:00,
2013-05-17 11:42:00,59.5,40.9,30.17,ESE,117,0.0,3.0,50,0.00,,,0.00,VWS V14.00,2013-05-17 15:42:00,
2013-05-17 11:47:00,59.7,41.6,30.17,ESE,117,0.0,3.0,51,0.00,,,0.00,VWS V14.00,2013-05-17 15:47:00,
2013-05-17 11:52:00,60.2,42.5,30.16,ESE,117,1.0,3.0,52,0.00,,,0.00,VWS V14.00,2013-05-17 15:52:00,
2013-05-17 11:57:00,60.4,41.2,30.17,South,190,0.0,3.0,49,0.00,,,0.00,VWS V14.00,2013-05-17 15:57:00,
2013-05-17 12:02:00,60.8,40.5,30.17,SSE,150,1.0,2.0,47,0.00,,,0.00,VWS V14.00,2013-05-17 16:02:00,
2013-05-17 12:07:00,60.5,41.8,30.17,SSE,150,0.0,2.0,50,0.00,,,0.00,VWS V14.00,2013-05-17 16:07:00,
2013-05-17 12:12:00,61.4,41.6,30.16,SW,223,3.0,3.0,48,0.00,,,0.00,VWS V14.00,2013-05-17 16:12:00,
2013-05-17 12:17:00,61.9,40.9,30.16,SSE,155,0.0,4.0,46,0.00,,,0.00,VWS V14.00,2013-05-17 16:17:00,
2013-05-17 12:22:00,62.1,41.1,30.16,South,182,1.0,5.0,46,0.00,,,0.00,VWS V14.00,2013-05-17 16:22:00,
2013-05-17 12:27:00,61.9,41.5,30.16,East,85,0.0,5.0,47,0.00,,,0.00,VWS V14.00,2013-05-17 16:27:00,
2013-05-17 12:32:00,61.2,39.7,30.16,NNE,32,1.0,2.0,45,0.00,,,0.00,VWS V14.00,2013-05-17 16:32:00,
2013-05-17 12:37:00,61.3,40.9,30.16,South,190,1.0,3.0,47,0.00,,,0.00,VWS V14.00,2013-05-17 16:37:00,
2013-05-17 12:42:00,61.8,40.8,30.16,ENE,61,0.0,4.0,46,0.00,,,0.00,VWS V14.00,2013-05-17 16:42:00,
2013-05-17 12:47:00,62.2,39.5,30.16,South,169,4.0,5.0,43,0.00,,,0.00,VWS V14.00,2013-05-17 16:47:00,
2013-05-17 12:52:00,62.9,41.3,30.15,SSE,160,0.0,5.0,45,0.00,,,0.00,VWS V14.00,2013-05-17 16:52:00,
2013-05-17 12:57:00,63.6,41.3,30.16,ESE,121,0.0,5.0,44,0.00,,,0.00,VWS V14.00,2013-05-17 16:57:00,
2013-05-17 13:02:00,64.2,40.7,30.15,SSW,209,0.0,1.0,42,0.00,,,0.00,VWS V14.00,2013-05-17 17:02:00,
2013-05-17 13:07:00,63.9,39.1,30.15,SSW,205,0.0,3.0,40,0.00,,,0.00,VWS V14.00,2013-05-17 17:07:00,
2013-05-17 13:12:00,63.1,39.0,30.15,North,5,0.0,3.0,41,0.00,,,0.00,VWS V14.00,2013-05-17 17:12:00,
2013-05-17 13:17:00,62.6,39.8,30.15,NNW,344,0.0,3.0,43,0.00,,,0.00,VWS V14.00,2013-05-17 17:17:00,
2013-05-17 13:22:00,63.3,41.0,30.15,South,171,0.0,4.0,44,0.00,,,0.00,VWS V14.00,2013-05-17 17:22:00,
2013-05-17 13:27:00,63.8,40.9,30.15,South,169,0.0,4.0,43,0.00,,,0.00,VWS V14.00,2013-05-17 17:27:00,
2013-05-17 13:32:00,63.3,41.0,30.15,South,169,0.0,1.0,44,0.00,,,0.00,VWS V14.00,2013-05-17 17:32:00,
2013-05-17 13:37:00,63.4,39.3,30.15,South,184,0.0,4.0,41,0.00,,,0.00,VWS V14.00,2013-05-17 17:37:00,
2013-05-17 13:42:00,63.5,40.0,30.15,NNW,329,1.0,4.0,42,0.00,,,0.00,VWS V14.00,2013-05-17 17:42:00,
2013-05-17 13:47:00,63.5,40.0,30.15,NW,324,0.0,4.0,42,0.00,,,0.00,VWS V14.00,2013-05-17 17:47:00,
2013-05-17 13:52:00,63.4,39.3,30.15,SW,234,0.0,4.0,41,0.00,,,0.00,VWS V14.00,2013-05-17 17:52:00,
2013-05-17 13:57:00,63.4,38.7,30.15,South,184,0.0,7.0,40,0.00,,,0.00,VWS V14.00,2013-05-17 17:57:00,
2013-05-17 14:02:00,63.4,39.9,30.15,SW,227,0.0,1.0,42,0.00,,,0.00,VWS V14.00,2013-05-17 18:02:00,
2013-05-17 14:07:00,63.5,40.0,30.15,WSW,237,0.0,1.0,42,0.00,,,0.00,VWS V14.00,2013-05-17 18:07:00,
2013-05-17 14:12:00,63.3,40.5,30.15,SE,130,0.0,1.0,43,0.00,,,0.00,VWS V14.00,2013-05-17 18:12:00,
2013-05-17 14:17:00,63.4,39.9,30.15,ESE,117,0.0,2.0,42,0.00,,,0.00,VWS V14.00,2013-05-17 18:17:00,
2013-05-17 14:22:00,63.5,40.0,30.15,SSW,194,0.0,2.0,42,0.00,,,0.00,VWS V14.00,2013-05-17 18:22:00,
2013-05-17 14:27:00,63.6,41.9,30.14,SSE,159,4.0,4.0,45,0.00,,,0.00,VWS V14.00,2013-05-17 18:27:00,
2013-05-17 14:32:00,63.8,40.3,30.15,North,360,0.0,2.0,42,0.00,,,0.00,VWS V14.00,2013-05-17 18:32:00,
2013-05-17 14:37:00,63.7,39.6,30.15,NNW,346,0.0,2.0,41,0.00,,,0.00,VWS V14.00,2013-05-17 18:37:00,
2013-05-17 14:42:00,63.6,40.7,30.15,NNW,346,0.0,2.0,43,0.00,,,0.00,VWS V14.00,2013-05-17 18:42:00,
2013-05-17 14:47:00,63.2,39.8,30.15,NNW,346,0.0,2.0,42,0.00,,,0.00,VWS V14.00,2013-05-17 18:47:00,
2013-05-17 14:52:00,62.8,39.4,30.15,NNW,346,0.0,2.0,42,0.00,,,0.00,VWS V14.00,2013-05-17 18:52:00,
2013-05-17 14:57:00,62.5,39.7,30.15,NNW,346,0.0,2.0,43,0.00,,,0.00,VWS V14.00,2013-05-17 18:57:00,
2013-05-17 15:02:00,62.3,40.1,30.15,ENE,61,0.0,1.0,44,0.00,,,0.00,VWS V14.00,2013-05-17 19:02:00,
2013-05-17 15:07:00,62.3,40.7,30.15,ENE,61,0.0,1.0,45,0.00,,,0.00,VWS V14.00,2013-05-17 19:07:00,
2013-05-17 15:12:00,62.0,40.4,30.15,ENE,61,0.0,1.0,45,0.00,,,0.00,VWS V14.00,2013-05-17 19:12:00,
2013-05-17 15:17:00,61.9,40.3,30.15,ENE,61,0.0,1.0,45,0.00,,,0.00,VWS V14.00,2013-05-17 19:17:00,
2013-05-17 15:22:00,61.9,40.3,30.15,ENE,61,0.0,1.0,45,0.00,,,0.00,VWS V14.00,2013-05-17 19:22:00,
2013-05-17 15:27:00,61.9,40.9,30.15,ENE,61,0.0,1.0,46,0.00,,,0.00,VWS V14.00,2013-05-17 19:27:00,
2013-05-17 15:33:00,62.0,40.4,30.15,ENE,62,0.0,1.0,45,0.00,,,0.00,VWS V14.00,2013-05-17 19:33:00,
2013-05-17 15:38:00,62.0,42.1,30.15,ENE,62,0.0,1.0,48,0.00,,,0.00,VWS V14.00,2013-05-17 19:38:00,
2013-05-17 15:43:00,62.0,40.4,30.15,South,187,0.0,3.0,45,0.00,,,0.00,VWS V14.00,2013-05-17 19:43:00,
2013-05-17 15:48:00,62.1,41.1,30.15,South,187,0.0,3.0,46,0.00,,,0.00,VWS V14.00,2013-05-17 19:48:00,
2013-05-17 15:53:00,62.1,40.5,30.15,South,187,0.0,3.0,45,0.00,,,0.00,VWS V14.00,2013-05-17 19:53:00,
2013-05-17 15:58:00,62.3,41.3,30.15,South,187,0.0,3.0,46,0.00,,,0.00,VWS V14.00,2013-05-17 19:58:00,
2013-05-17 16:03:00,62.2,41.2,30.15,South,186,1.0,2.0,46,0.00,,,0.00,VWS V14.00,2013-05-17 20:03:00,
2013-05-17 16:08:00,62.1,41.1,30.15,South,178,0.0,2.0,46,0.00,,,0.00,VWS V14.00,2013-05-17 20:08:00,
2013-05-17 16:13:00,62.0,40.4,30.15,SE,143,0.0,2.0,45,0.00,,,0.00,VWS V14.00,2013-05-17 20:13:00,
2013-05-17 16:18:00,62.0,40.4,30.15,SE,143,0.0,2.0,45,0.00,,,0.00,VWS V14.00,2013-05-17 20:18:00,
2013-05-17 16:23:00,61.9,40.3,30.15,South,183,0.0,2.0,45,0.00,,,0.00,VWS V14.00,2013-05-17 20:23:00,
2013-05-17 16:28:00,61.8,40.8,30.15,South,183,0.0,2.0,46,0.00,,,0.00,VWS V14.00,2013-05-17 20:28:00,
2013-05-17 16:33:00,61.7,41.3,30.15,SE,138,0.0,1.0,47,0.00,,,0.00,VWS V14.00,2013-05-17 20:33:00,
2013-05-17 16:38:00,61.7,41.3,30.15,SE,142,0.0,1.0,47,0.00,,,0.00,VWS V14.00,2013-05-17 20:38:00,
2013-05-17 16:43:00,61.7,41.3,30.15,SE,142,0.0,1.0,47,0.00,,,0.00,VWS V14.00,2013-05-17 20:43:00,
2013-05-17 16:48:00,61.7,40.7,30.15,SE,142,0.0,1.0,46,0.00,,,0.00,VWS V14.00,2013-05-17 20:48:00,
2013-05-17 16:53:00,61.6,41.2,30.15,SE,142,0.0,1.0,47,0.00,,,0.00,VWS V14.00,2013-05-17 20:53:00,
2013-05-17 16:58:00,61.8,40.3,30.15,South,175,1.0,2.0,45,0.00,,,0.00,VWS V14.00,2013-05-17 20:58:00,
2013-05-17 17:03:00,62.0,41.6,30.15,South,182,0.0,1.0,47,0.00,,,0.00,VWS V14.00,2013-05-17 21:03:00,
2013-05-17 17:08:00,62.2,41.7,30.15,South,190,1.0,1.0,47,0.00,,,0.00,VWS V14.00,2013-05-17 21:08:00,
2013-05-17 17:13:00,62.3,41.3,30.15,South,190,0.0,1.0,46,0.00,,,0.00,VWS V14.00,2013-05-17 21:13:00,
2013-05-17 17:18:00,62.3,41.3,30.15,South,190,0.0,2.0,46,0.00,,,0.00,VWS V14.00,2013-05-17 21:18:00,
2013-05-17 17:23:00,62.5,40.9,30.15,SSE,155,0.0,4.0,45,0.00,,,0.00,VWS V14.00,2013-05-17 21:23:00,
2013-05-17 17:28:00,62.5,40.9,30.15,South,182,0.0,4.0,45,0.00,,,0.00,VWS V14.00,2013-05-17 21:28:00,
2013-05-17 17:33:00,62.5,40.9,30.15,South,182,0.0,1.0,45,0.00,,,0.00,VWS V14.00,2013-05-17 21:33:00,
2013-05-17 17:38:00,62.5,40.9,30.15,South,182,0.0,1.0,45,0.00,,,0.00,VWS V14.00,2013-05-17 21:38:00,
2013-05-17 17:43:00,62.6,40.4,30.14,South,188,0.0,2.0,44,0.00,,,0.00,VWS V14.00,2013-05-17 21:43:00,
2013-05-17 17:48:00,62.6,41.5,30.15,South,188,0.0,2.0,46,0.00,,,0.00,VWS V14.00,2013-05-17 21:48:00,
2013-05-17 17:53:00,62.6,41.5,30.15,South,188,1.0,2.0,46,0.00,,,0.00,VWS V14.00,2013-05-17 21:53:00,
2013-05-17 17:58:00,62.5,40.9,30.15,South,185,1.0,2.0,45,0.00,,,0.00,VWS V14.00,2013-05-17 21:58:00,
2013-05-17 18:03:00,62.6,41.0,30.15,SSW,201,0.0,0.0,45,0.00,,,0.00,VWS V14.00,2013-05-17 22:03:00,
2013-05-17 18:08:00,62.6,41.0,30.15,East,88,0.0,2.0,45,0.00,,,0.00,VWS V14.00,2013-05-17 22:08:00,
2013-05-17 18:13:00,62.6,41.0,30.15,ESE,113,0.0,2.0,45,0.00,,,0.00,VWS V14.00,2013-05-17 22:13:00,
2013-05-17 18:18:00,62.6,41.0,30.15,SE,145,0.0,2.0,45,0.00,,,0.00,VWS V14.00,2013-05-17 22:18:00,
2013-05-17 18:23:00,62.6,40.4,30.15,SE,128,0.0,2.0,44,0.00,,,0.00,VWS V14.00,2013-05-17 22:23:00,
2013-05-17 18:28:00,62.6,40.4,30.15,South,179,0.0,3.0,44,0.00,,,0.00,VWS V14.00,2013-05-17 22:28:00,
2013-05-17 18:33:00,62.6,41.5,30.15,South,179,0.0,0.0,46,0.00,,,0.00,VWS V14.00,2013-05-17 22:33:00,
2013-05-17 18:38:00,62.5,40.9,30.15,SSE,158,0.0,1.0,45,0.00,,,0.00,VWS V14.00,2013-05-17 22:38:00,
2013-05-17 18:43:00,62.3,40.7,30.15,SSE,158,0.0,1.0,45,0.00,,,0.00,VWS V14.00,2013-05-17 22:43:00,
2013-05-17 18:48:00,62.1,40.5,30.15,SSE,158,0.0,1.0,45,0.00,,,0.00,VWS V14.00,2013-05-17 22:48:00,
2013-05-17 18:53:00,62.0,40.4,30.15,South,177,0.0,1.0,45,0.00,,,0.00,VWS V14.00,2013-05-17 22:53:00,
2013-05-17 18:58:00,61.8,40.8,30.15,SSW,206,0.0,1.0,46,0.00,,,0.00,VWS V14.00,2013-05-17 22:58:00,
2013-05-17 19:03:00,61.6,40.6,30.15,SSW,205,0.0,0.0,46,0.00,,,0.00,VWS V14.00,2013-05-17 23:03:00,
2013-05-17 19:08:00,61.5,41.1,30.15,SSW,205,0.0,0.0,47,0.00,,,0.00,VWS V14.00,2013-05-17 23:08:00,
2013-05-17 19:13:00,61.3,41.5,30.16,SSW,205,0.0,0.0,48,0.00,,,0.00,VWS V14.00,2013-05-17 23:13:00,
2013-05-17 19:18:00,61.1,41.8,30.16,SSW,194,0.0,1.0,49,0.00,,,0.00,VWS V14.00,2013-05-17 23:18:00,
2013-05-17 19:23:00,60.9,41.6,30.16,SSW,194,0.0,1.0,49,0.00,,,0.00,VWS V14.00,2013-05-17 23:23:00,
2013-05-17 19:28:00,60.6,41.9,30.16,SSW,194,0.0,1.0,50,0.00,,,0.00,VWS V14.00,2013-05-17 23:28:00,
2013-05-17 19:33:00,60.4,42.7,30.16,SSW,194,0.0,0.0,52,0.00,,,0.00,VWS V14.00,2013-05-17 23:33:00,
2013-05-17 19:38:00,60.1,42.9,30.16,SSW,194,0.0,0.0,53,0.00,,,0.00,VWS V14.00,2013-05-17 23:38:00,
2013-05-17 19:43:00,59.8,44.1,30.16,SSW,194,0.0,0.0,56,0.00,,,0.00,VWS V14.00,2013-05-17 23:43:00,
2013-05-17 19:48:00,59.3,44.1,30.16,SSW,194,0.0,0.0,57,0.00,,,0.00,VWS V14.00,2013-05-17 23:48:00,
2013-05-17 19:53:00,58.9,43.7,30.16,SSW,194,0.0,0.0,57,0.00,,,0.00,VWS V14.00,2013-05-17 23:53:00,
2013-05-17 19:58:00,58.7,43.5,30.17,SSW,194,0.0,0.0,57,0.00,,,0.00,VWS V14.00,2013-05-17 23:58:00,
2013-05-17 20:03:00,58.4,43.2,30.17,SSW,194,0.0,0.0,57,0.00,,,0.00,VWS V14.00,2013-05-18 00:03:00,
2013-05-17 20:08:00,58.0,43.3,30.17,SSW,194,0.0,0.0,58,0.00,,,0.00,VWS V14.00,2013-05-18 00:08:00,
2013-05-17 20:13:00,57.7,43.5,30.17,SSW,194,0.0,0.0,59,0.00,,,0.00,VWS V14.00,2013-05-18 00:13:00,
2013-05-17 20:18:00,57.4,43.6,30.17,SSW,194,0.0,0.0,60,0.00,,,0.00,VWS V14.00,2013-05-18 00:18:00,
2013-05-17 20:23:00,57.1,44.2,30.17,SSW,194,0.0,0.0,62,0.00,,,0.00,VWS V14.00,2013-05-18 00:23:00,
2013-05-17 20:28:00,56.9,44.0,30.16,SSW,194,0.0,0.0,62,0.00,,,0.00,VWS V14.00,2013-05-18 00:28:00,
2013-05-17 20:33:00,56.7,44.3,30.17,SSW,194,0.0,0.0,63,0.00,,,0.00,VWS V14.00,2013-05-18 00:33:00,
2013-05-17 20:38:00,56.4,44.0,30.16,SSW,194,0.0,0.0,63,0.00,,,0.00,VWS V14.00,2013-05-18 00:38:00,
2013-05-17 20:43:00,56.2,44.2,30.17,SSW,194,0.0,0.0,64,0.00,,,0.00,VWS V14.00,2013-05-18 00:43:00,
2013-05-17 20:48:00,55.9,43.9,30.17,SSW,194,0.0,0.0,64,0.00,,,0.00,VWS V14.00,2013-05-18 00:48:00,
2013-05-17 20:53:00,55.5,43.5,30.17,SSW,194,0.0,0.0,64,0.00,,,0.00,VWS V14.00,2013-05-18 00:53:00,
2013-05-17 20:58:00,55.1,43.6,30.17,SSW,194,0.0,0.0,65,0.00,,,0.00,VWS V14.00,2013-05-18 00:58:00,
2013-05-17 21:03:00,54.9,43.8,30.18,SSW,194,0.0,0.0,66,0.00,,,0.00,VWS V14.00,2013-05-18 01:03:00,
2013-05-17 21:08:00,54.7,44.0,30.18,SSW,194,0.0,0.0,67,0.00,,,0.00,VWS V14.00,2013-05-18 01:08:00,
2013-05-17 21:13:00,54.5,44.5,30.18,SSW,194,0.0,0.0,69,0.00,,,0.00,VWS V14.00,2013-05-18 01:13:00,
2013-05-17 21:18:00,54.4,44.1,30.18,SSW,194,0.0,0.0,68,0.00,,,0.00,VWS V14.00,2013-05-18 01:18:00,
2013-05-17 21:23:00,54.2,43.9,30.18,SSW,194,0.0,0.0,68,0.00,,,0.00,VWS V14.00,2013-05-18 01:23:00,
2013-05-17 21:28:00,54.1,43.4,30.18,SSW,194,0.0,0.0,67,0.00,,,0.00,VWS V14.00,2013-05-18 01:28:00,
2013-05-17 21:33:00,53.9,43.6,30.18,SSW,194,0.0,0.0,68,0.00,,,0.00,VWS V14.00,2013-05-18 01:33:00,
2013-05-17 21:38:00,53.8,43.9,30.19,SSW,194,0.0,0.0,69,0.00,,,0.00,VWS V14.00,2013-05-18 01:38:00,
2013-05-17 21:43:00,53.7,43.8,30.19,SSW,194,0.0,0.0,69,0.00,,,0.00,VWS V14.00,2013-05-18 01:43:00,
2013-05-17 21:48:00,53.5,43.6,30.19,SSW,194,0.0,0.0,69,0.00,,,0.00,VWS V14.00,2013-05-18 01:48:00,
2013-05-17 21:53:00,53.4,43.5,30.19,SSW,194,0.0,0.0,69,0.00,,,0.00,VWS V14.00,2013-05-18 01:53:00,
2013-05-17 21:58:00,53.2,43.7,30.19,SSW,194,0.0,0.0,70,0.00,,,0.00,VWS V14.00,2013-05-18 01:58:00,
2013-05-17 22:03:00,53.0,43.5,30.20,SSW,194,0.0,0.0,70,0.00,,,0.00,VWS V14.00,2013-05-18 02:03:00,
2013-05-17 22:08:00,52.7,43.2,30.20,SSW,194,0.0,0.0,70,0.00,,,0.00,VWS V14.00,2013-05-18 02:08:00,
2013-05-17 22:13:00,52.4,42.9,30.20,SSW,194,0.0,0.0,70,0.00,,,0.00,VWS V14.00,2013-05-18 02:13:00,
2013-05-17 22:18:00,52.3,43.9,30.20,SSW,194,0.0,0.0,73,0.00,,,0.00,VWS V14.00,2013-05-18 02:18:00,
2013-05-17 22:24:00,52.2,43.5,30.20,SSW,194,0.0,0.0,72,0.00,,,0.00,VWS V14.00,2013-05-18 02:24:00,
2013-05-17 22:29:00,52.0,43.6,30.20,SSW,194,0.0,0.0,73,0.00,,,0.00,VWS V14.00,2013-05-18 02:29:00,
2013-05-17 22:34:00,51.9,43.2,30.20,SSW,194,0.0,0.0,72,0.00,,,0.00,VWS V14.00,2013-05-18 02:34:00,
2013-05-17 22:39:00,51.8,43.4,30.20,SSW,194,0.0,0.0,73,0.00,,,0.00,VWS V14.00,2013-05-18 02:39:00,
2013-05-17 22:44:00,51.7,43.3,30.20,SSW,194,0.0,0.0,73,0.00,,,0.00,VWS V14.00,2013-05-18 02:44:00,
2013-05-17 22:49:00,51.6,43.6,30.20,SSW,194,0.0,0.0,74,0.00,,,0.00,VWS V14.00,2013-05-18 02:49:00,
2013-05-17 22:54:00,51.6,43.2,30.20,SSW,194,0.0,0.0,73,0.00,,,0.00,VWS V14.00,2013-05-18 02:54:00,
2013-05-17 22:59:00,51.5,43.1,30.20,SSW,194,0.0,0.0,73,0.00,,,0.00,VWS V14.00,2013-05-18 02:59:00,
2013-05-17 23:04:00,51.5,43.5,30.21,SSW,194,0.0,0.0,74,0.00,,,0.00,VWS V14.00,2013-05-18 03:04:00,
2013-05-17 23:09:00,51.4,43.0,30.21,SSW,194,0.0,0.0,73,0.00,,,0.00,VWS V14.00,2013-05-18 03:09:00,
2013-05-17 23:14:00,51.4,42.3,30.20,SSW,194,0.0,0.0,71,0.00,,,0.00,VWS V14.00,2013-05-18 03:14:00,
2013-05-17 23:19:00,51.4,43.0,30.21,SSW,194,0.0,0.0,73,0.00,,,0.00,VWS V14.00,2013-05-18 03:19:00,
2013-05-17 23:24:00,51.4,43.0,30.21,SSW,194,0.0,0.0,73,0.00,,,0.00,VWS V14.00,2013-05-18 03:24:00,
2013-05-17 23:29:00,51.3,42.6,30.21,SSW,194,0.0,0.0,72,0.00,,,0.00,VWS V14.00,2013-05-18 03:29:00,
2013-05-17 23:34:00,51.3,42.6,30.21,SSW,194,0.0,0.0,72,0.00,,,0.00,VWS V14.00,2013-05-18 03:34:00,
2013-05-17 23:39:00,51.2,42.9,30.21,SSW,194,0.0,0.0,73,0.00,,,0.00,VWS V14.00,2013-05-18 03:39:00,
2013-05-17 23:44:00,51.2,43.2,30.21,SSW,194,0.0,0.0,74,0.00,,,0.00,VWS V14.00,2013-05-18 03:44:00,
2013-05-17 23:49:00,51.3,43.0,30.21,SSW,194,0.0,0.0,73,0.00,,,0.00,VWS V14.00,2013-05-18 03:49:00,
2013-05-17 23:54:00,51.3,43.3,30.21,SSW,194,0.0,0.0,74,0.00,,,0.00,VWS V14.00,2013-05-18 03:54:00,
2013-05-17 23:59:00,51.3,43.3,30.21,SSW,194,0.0,0.0,74,0.00,,,0.00,VWS V14.00,2013-05-18 03:59:00,